Simultaneous Nadir Overpasses (SNOs) Predictions

Prediction of SNOs between NOAA-15 and METOP-C Satellite Orbit:

Table of predicted SNOs for the next 14.0 days since TLE Epoch: 6/18/2021
Index Date (NOAA-15) Time (NOAA-15) Lat,Lon (NOAA-15) SZA (NOAA-15 ) Date (METOP-C) Time (METOP-C) Lat,Lon (METOP-C) SZA (METOP-C ) Distance(km) Time Diff (sec)
1 06/26/2021 02:51:16 -81.03, -5.93 120.51 06/26/2021 02:50:01 -81.00, -6.08 120.59 4.69 75
2 06/26/2021 03:41:47 81.02, 161.79 59.52 06/26/2021 03:40:39 81.02, 161.81 59.49 0.72 68
3 06/26/2021 04:32:17 -81.01, -30.74 120.48 06/26/2021 04:31:21 -81.02, -30.85 120.51 2.15 56
4 06/26/2021 05:22:50 81.03, 136.24 59.50 06/26/2021 05:22:01 81.01, 136.31 59.47 1.97 49
5 06/26/2021 06:13:20 -81.02, -56.30 120.50 06/26/2021 06:12:43 -81.01, -56.35 120.53 1.48 37
6 06/26/2021 07:03:52 81.02, 111.06 59.51 06/26/2021 07:03:22 81.02, 111.18 59.50 1.97 30
7 06/26/2021 07:54:22 -81.02, -81.48 120.49 06/26/2021 07:54:04 -81.02, -81.49 120.50 0.25 18
8 06/26/2021 08:44:54 81.02, 85.88 59.51 06/26/2021 08:44:43 81.03, 86.04 59.53 2.99 11
9 06/26/2021 09:35:24 -81.02,-106.67 120.48 06/26/2021 09:35:25 -81.03,-106.62 120.47 1.74 1
10 06/26/2021 10:25:56 81.02, 60.70 59.52 06/26/2021 10:26:05 81.02, 60.54 59.51 2.94 9
11 06/26/2021 11:16:27 -81.03,-132.22 120.50 06/26/2021 11:16:47 -81.03,-132.12 120.49 1.77 20
12 06/26/2021 12:06:59 81.03, 35.15 59.50 06/26/2021 12:07:27 81.02, 35.04 59.49 2.49 28
13 06/26/2021 12:57:29 -81.03,-157.40 120.49 06/26/2021 12:58:08 -81.03,-157.26 120.46 2.62 39
14 06/26/2021 13:48:00 81.03, 9.97 59.51 06/26/2021 13:48:47 81.03, 9.90 59.52 1.25 47
15 06/26/2021 14:38:30 -81.02, 177.41 120.49 06/26/2021 14:39:29 -81.03, 177.24 120.48 2.99 59
16 06/26/2021 15:29:02 81.02, -15.21 59.52 06/26/2021 15:30:08 81.04, -15.23 59.55 1.38 66



Historial Predications of SNOs between NOAA-15 and METOP-C
